M I D A S
Marine Information and Data Acquisition System
Tripno 357 of the Zeeleeuw from 2002-11-08 08:37:10 to 2002-11-08 11:57:04
Back to CruiseResearch ActivitiesStationsMapUnderway DataData graphs

EquipmentUnitsComments
TimeDGPSUTC
LatitudeDGPSDM.mWGS84
LongitudeDGPSDM.mWGS84
SpeedMeteo Stationm/sRelative wind speed
DirectionMeteo StationdegRelative wind direction
TemperatureMeteo Stationdeg CelciusAir temperature
PressureMeteo StationPaAtmospheric pressure
HumidityMeteo Station%Relative humidity
Missing or incorrect values are displayed as -999
Metereological data collected by the RV Zeeleeuw from 2002-11-08 08:37:10 to 2002-11-08 11:57:04
                                                                                    Next 1000 lines
Time Latitude Longitude Speed Direction Temperature Pressure Humidity
2002-11-08 08:37:19 51°13.718 2°55.751 1.9 335 6.9 101480 85
2002-11-08 08:37:23 51°13.721 2°55.749 1.5 318 6.9 101480 85
2002-11-08 08:37:27 51°13.724 2°55.745 0.6 17 6.9 101480 85
2002-11-08 08:37:33 51°13.729 2°55.74 0.7 357 6.9 101480 85
2002-11-08 08:37:38 51°13.734 2°55.734 1.5 257 6.9 101480 85
2002-11-08 08:37:43 51°13.738 2°55.729 0.9 120 6.9 101470 85
2002-11-08 08:37:47 51°13.742 2°55.725 0.6 350 6.9 101470 85
2002-11-08 08:37:53 51°13.748 2°55.718 1.1 342 6.9 101470 85
2002-11-08 08:37:58 51°13.753 2°55.712 1.8 302 6.9 101470 85
2002-11-08 08:38:03 51°13.759 2°55.706 1.1 320 6.9 101470 85
2002-11-08 08:38:09 51°13.765 2°55.699 1.3 303 6.9 101470 85
2002-11-08 08:38:11 51°13.767 2°55.696 1.6 339 6.9 101480 85
2002-11-08 08:38:18 51°13.776 2°55.688 0.9 64 6.9 101480 85
2002-11-08 08:38:23 51°13.782 2°55.682 0.6 32 6.9 101480 85
2002-11-08 08:38:27 51°13.787 2°55.677 0.4 320 6.9 101480 85
2002-11-08 08:38:33 51°13.795 2°55.669 0.8 303 7 101470 85
2002-11-08 08:38:38 51°13.802 2°55.663 1.1 302 7 101470 85
2002-11-08 08:38:43 51°13.809 2°55.656 1.2 309 7 101470 85
2002-11-08 08:38:48 51°13.816 2°55.65 1.8 234 7 101470 85
2002-11-08 08:38:52 51°13.823 2°55.644 1.5 254 7 101470 85
2002-11-08 08:38:58 51°13.832 2°55.637 2.7 244 7 101470 85
2002-11-08 08:39:03 51°13.84 2°55.63 2.6 318 7 101470 85
2002-11-08 08:39:08 51°13.849 2°55.624 2.6 303 7 101470 85
2002-11-08 08:39:13 51°13.858 2°55.617 2.1 357 7 101470 85
2002-11-08 08:39:18 51°13.867 2°55.611 2.6 284 7 101470 85
2002-11-08 08:39:23 51°13.876 2°55.604 4.2 292 7 101470 85
2002-11-08 08:39:29 51°13.887 2°55.596 4.5 290 7 101470 85
2002-11-08 08:39:33 51°13.894 2°55.59 4.1 300 7 101470 85
2002-11-08 08:39:38 51°13.903 2°55.583 3 270 7 101470 85
2002-11-08 08:39:43 51°13.913 2°55.576 3.1 256 7 101470 85
2002-11-08 08:39:47 51°13.92 2°55.57 3.4 286 7 101470 85
2002-11-08 08:39:53 51°13.931 2°55.561 2.6 313 7 101470 85
2002-11-08 08:39:58 51°13.941 2°55.554 3.8 276 7 101470 85
2002-11-08 08:40:03 51°13.951 2°55.547 4.4 264 7 101470 85
2002-11-08 08:40:07 51°13.959 2°55.541 3.3 283 7 101470 85
2002-11-08 08:40:13 51°13.97 2°55.532 3.9 278 7 101470 85
2002-11-08 08:40:18 51°13.98 2°55.526 4.2 285 7 101470 85
2002-11-08 08:40:23 51°13.99 2°55.519 3.9 303 7 101470 85
2002-11-08 08:40:28 51°14 2°55.511 2.6 311 7 101470 85
2002-11-08 08:40:33 51°14.01 2°55.504 3.9 300 7 101460 85
2002-11-08 08:40:38 51°14.02 2°55.497 3.3 304 7 101460 85
2002-11-08 08:40:43 51°14.03 2°55.489 2.4 338 7 101470 85
2002-11-08 08:40:48 51°14.04 2°55.482 3.4 328 7 101470 85
2002-11-08 08:40:53 51°14.05 2°55.474 2.6 348 7 101470 85
2002-11-08 08:40:58 51°14.06 2°55.467 2.1 304 7 101470 85
2002-11-08 08:41:03 51°14.07 2°55.459 2.2 279 7 101470 85
2002-11-08 08:41:07 51°14.078 2°55.452 3.3 249 7 101470 85
2002-11-08 08:41:13 51°14.09 2°55.443 2.9 287 7 101470 85
2002-11-08 08:41:19 51°14.102 2°55.434 2.5 326 7 101470 85
2002-11-08 08:41:23 51°14.11 2°55.428 1.9 340 7 101470 85
2002-11-08 08:41:29 51°14.121 2°55.419 1.5 330 7 101470 85
2002-11-08 08:41:33 51°14.129 2°55.412 0.8 358 7 101470 85
2002-11-08 08:41:38 51°14.139 2°55.404 2.3 313 7 101470 85
2002-11-08 08:41:43 51°14.148 2°55.395 2.6 285 7 101470 85
2002-11-08 08:41:49 51°14.16 2°55.384 2.7 273 7 101470 85
2002-11-08 08:41:53 51°14.168 2°55.377 2 284 7 101460 85
2002-11-08 08:41:58 51°14.177 2°55.367 2.1 281 7 101460 85
2002-11-08 08:42:03 51°14.186 2°55.357 2.2 270 7.1 101470 85
2002-11-08 08:42:09 51°14.196 2°55.345 2.5 284 7.1 101470 85
2002-11-08 08:42:13 51°14.203 2°55.336 2.4 260 7.1 101470 85
2002-11-08 08:42:18 51°14.211 2°55.326 2.7 260 7.1 101470 85
2002-11-08 08:42:23 51°14.22 2°55.315 4.1 281 7.1 101460 85
2002-11-08 08:42:28 51°14.228 2°55.303 5.7 278 7.1 101460 85
2002-11-08 08:42:33 51°14.236 2°55.291 5.4 266 7.1 101460 85
2002-11-08 08:42:38 51°14.243 2°55.279 6.4 279 7.1 101460 85
2002-11-08 08:42:43 51°14.25 2°55.266 6.7 276 7.1 101460 85
2002-11-08 08:42:47 51°14.256 2°55.256 7.9 277 7.1 101460 85
2002-11-08 08:42:53 51°14.266 2°55.241 7.5 276 7.1 101470 85
2002-11-08 08:42:58 51°14.274 2°55.227 6.5 291 7.1 101470 85
2002-11-08 08:43:03 51°14.282 2°55.213 8.4 267 7.1 101460 85
2002-11-08 08:43:08 51°14.29 2°55.199 6.3 266 7.1 101460 85
2002-11-08 08:43:12 51°14.297 2°55.187 7.5 271 7.1 101460 85
2002-11-08 08:43:18 51°14.307 2°55.169 8.4 284 7.1 101460 85
2002-11-08 08:43:23 51°14.315 2°55.153 11.9 283 7.1 101460 85
2002-11-08 08:43:28 51°14.324 2°55.138 10.4 287 7.1 101460 85
2002-11-08 08:43:33 51°14.332 2°55.122 8.2 272 7.1 101440 85
2002-11-08 08:43:38 51°14.341 2°55.107 9.1 297 7.1 101440 85
2002-11-08 08:43:43 51°14.349 2°55.092 7.1 275 7.1 101450 85
2002-11-08 08:43:47 51°14.356 2°55.079 8.5 304 7.1 101450 85
2002-11-08 08:43:52 51°14.365 2°55.064 8.5 289 7.1 101450 85
2002-11-08 08:43:58 51°14.375 2°55.044 8.9 288 7.1 101450 85
2002-11-08 08:44:03 51°14.383 2°55.027 9.8 287 7.2 101460 85
2002-11-08 08:44:06 51°14.387 2°55.016 9.1 283 7.2 101460 85
2002-11-08 08:44:14 51°14.396 2°54.986 8.5 288 7.2 101460 85
2002-11-08 08:44:18 51°14.4 2°54.971 9.5 276 7.2 101460 85
2002-11-08 08:44:23 51°14.403 2°54.951 9.7 274 7.2 101450 85
2002-11-08 08:44:28 51°14.406 2°54.931 10.3 277 7.2 101450 85
2002-11-08 08:44:33 51°14.407 2°54.911 11.2 275 7.2 101440 85
2002-11-08 08:44:38 51°14.408 2°54.89 12.7 267 7.2 101440 85
2002-11-08 08:44:43 51°14.407 2°54.869 13.4 270 7.2 101440 85
2002-11-08 08:44:46 51°14.407 2°54.856 12.2 263 7.2 101440 85
2002-11-08 08:44:53 51°14.405 2°54.825 12.5 258 7.3 101430 85
2002-11-08 08:44:59 51°14.403 2°54.796 14.6 271 7.3 101430 85
2002-11-08 08:45:03 51°14.402 2°54.776 13.9 270 7.3 101410 85
2002-11-08 08:45:09 51°14.401 2°54.744 15.8 264 7.3 101410 85
2002-11-08 08:45:14 51°14.4 2°54.718 15.6 271 7.3 101410 85
2002-11-08 08:45:18 51°14.399 2°54.696 15 262 7.3 101410 85
2002-11-08 08:45:23 51°14.397 2°54.669 15.2 260 7.3 101400 85
2002-11-08 08:45:28 51°14.395 2°54.641 15.1 260 7.3 101400 85
2002-11-08 08:45:32 51°14.392 2°54.618 14.3 254 7.3 101420 85
2002-11-08 08:45:38 51°14.388 2°54.584 14.9 252 7.3 101420 85
2002-11-08 08:45:43 51°14.384 2°54.556 15.7 253 7.3 101400 85
2002-11-08 08:45:47 51°14.381 2°54.534 14.8 256 7.3 101400 85
2002-11-08 08:45:53 51°14.376 2°54.5 15.4 252 7.4 101400 85
2002-11-08 08:45:58 51°14.371 2°54.472 16.3 254 7.4 101400 85
2002-11-08 08:46:03 51°14.365 2°54.444 15.1 254 7.4 101420 85
2002-11-08 08:46:06 51°14.362 2°54.428 15.2 253 7.4 101420 85
2002-11-08 08:46:13 51°14.353 2°54.39 14.4 253 7.4 101400 85
2002-11-08 08:46:18 51°14.345 2°54.364 15.5 251 7.4 101400 85
2002-11-08 08:46:23 51°14.337 2°54.337 15.2 247 7.4 101420 85
2002-11-08 08:46:27 51°14.331 2°54.316 16.6 248 7.4 101420 85
2002-11-08 08:46:34 51°14.318 2°54.281 17.2 248 7.5 101420 85
2002-11-08 08:46:38 51°14.31 2°54.261 16.3 247 7.5 101420 85
2002-11-08 08:46:43 51°14.301 2°54.235 16.6 242 7.5 101410 85
2002-11-08 08:46:48 51°14.291 2°54.21 15.3 244 7.5 101410 85
2002-11-08 08:46:52 51°14.283 2°54.19 15.5 254 7.5 101410 85
2002-11-08 08:46:58 51°14.272 2°54.16 16 249 7.5 101410 85
2002-11-08 08:47:03 51°14.262 2°54.135 14.7 241 7.5 101410 85
2002-11-08 08:47:08 51°14.252 2°54.11 15.7 250 7.5 101410 85
2002-11-08 08:47:13 51°14.242 2°54.084 14.8 247 7.6 101420 85
2002-11-08 08:47:18 51°14.233 2°54.059 15.8 253 7.6 101420 85
2002-11-08 08:47:23 51°14.223 2°54.033 15.7 252 7.6 101420 85
2002-11-08 08:47:28 51°14.214 2°54.007 14.4 252 7.6 101420 85
2002-11-08 08:47:33 51°14.206 2°53.981 15 248 7.6 101420 85
2002-11-08 08:47:38 51°14.197 2°53.955 14.5 252 7.6 101420 85
2002-11-08 08:47:43 51°14.189 2°53.928 15.9 248 7.6 101420 85
2002-11-08 08:47:48 51°14.182 2°53.9 16.5 254 7.6 101420 85
2002-11-08 08:47:53 51°14.173 2°53.874 15.4 248 7.6 101410 85
2002-11-08 08:47:58 51°14.165 2°53.847 15.3 249 7.6 101410 85
2002-11-08 08:48:03 51°14.158 2°53.82 14.7 249 7.6 101420 85
2002-11-08 08:48:08 51°14.149 2°53.793 14.2 249 7.6 101420 85
2002-11-08 08:48:13 51°14.141 2°53.766 15.4 253 7.6 101410 84
2002-11-08 08:48:18 51°14.133 2°53.738 15.4 253 7.6 101410 84
2002-11-08 08:48:23 51°14.124 2°53.712 13.6 252 7.6 101410 84
2002-11-08 08:48:28 51°14.116 2°53.685 15.1 248 7.6 101410 84
2002-11-08 08:48:33 51°14.107 2°53.657 16.1 250 7.7 101420 84
2002-11-08 08:48:38 51°14.098 2°53.63 14.7 250 7.7 101420 84
2002-11-08 08:48:43 51°14.09 2°53.603 14.7 255 7.7 101430 85
2002-11-08 08:48:47 51°14.083 2°53.581 14.2 253 7.7 101430 85
2002-11-08 08:48:53 51°14.073 2°53.548 15.5 256 7.7 101410 84
2002-11-08 08:48:58 51°14.065 2°53.521 15 250 7.7 101410 84
2002-11-08 08:49:03 51°14.056 2°53.494 13.8 250 7.7 101410 84
2002-11-08 08:49:08 51°14.048 2°53.466 15.8 255 7.7 101410 84
2002-11-08 08:49:13 51°14.039 2°53.438 15.1 252 7.7 101410 84
2002-11-08 08:49:18 51°14.032 2°53.41 14.9 252 7.7 101410 84
2002-11-08 08:49:23 51°14.023 2°53.383 14.1 251 7.7 101420 84
2002-11-08 08:49:27 51°14.017 2°53.361 14.1 253 7.7 101420 84
2002-11-08 08:49:33 51°14.007 2°53.328 12 250 7.7 101410 84
2002-11-08 08:49:38 51°13.998 2°53.3 14.9 254 7.7 101410 84
2002-11-08 08:49:43 51°13.991 2°53.272 14 258 7.7 101410 84
2002-11-08 08:49:48 51°13.982 2°53.244 13.7 251 7.7 101410 84
2002-11-08 08:49:53 51°13.974 2°53.216 14.4 252 7.7 101410 84
2002-11-08 08:49:58 51°13.965 2°53.188 15.1 253 7.7 101410 84
2002-11-08 08:50:04 51°13.956 2°53.154 15.2 254 7.7 101420 84
2002-11-08 08:50:08 51°13.949 2°53.132 14.9 251 7.7 101420 84
2002-11-08 08:50:13 51°13.941 2°53.104 14.6 253 7.7 101410 84
2002-11-08 08:50:19 51°13.93 2°53.07 15 251 7.7 101410 84
2002-11-08 08:50:24 51°13.923 2°53.042 15.9 256 7.7 101410 84
2002-11-08 08:50:29 51°13.914 2°53.014 13 250 7.7 101410 84
2002-11-08 08:50:34 51°13.905 2°52.986 16.4 254 7.8 101410 84
2002-11-08 08:50:39 51°13.897 2°52.958 14.5 256 7.8 101410 84
2002-11-08 08:50:44 51°13.888 2°52.93 14.6 255 7.7 101400 84
2002-11-08 08:50:47 51°13.883 2°52.913 14.1 247 7.7 101400 84
2002-11-08 08:50:54 51°13.872 2°52.874 14.4 250 7.8 101420 84
2002-11-08 08:50:59 51°13.863 2°52.845 14.4 249 7.8 101420 84
2002-11-08 08:51:04 51°13.855 2°52.817 15.8 251 7.7 101400 84
2002-11-08 08:51:07 51°13.85 2°52.8 15.4 252 7.7 101400 84
2002-11-08 08:51:14 51°13.838 2°52.761 15.4 253 7.8 101410 84
2002-11-08 08:51:19 51°13.83 2°52.733 14.9 254 7.8 101410 84
2002-11-08 08:51:24 51°13.822 2°52.704 15.3 256 7.8 101410 85
2002-11-08 08:51:28 51°13.815 2°52.682 13 250 7.8 101410 85
2002-11-08 08:51:34 51°13.805 2°52.648 15.5 253 7.8 101410 84
2002-11-08 08:51:39 51°13.796 2°52.62 15.8 249 7.8 101410 84
2002-11-08 08:51:44 51°13.789 2°52.591 15.6 252 7.8 101410 84
2002-11-08 08:51:48 51°13.782 2°52.57 14.6 251 7.8 101410 84
2002-11-08 08:51:54 51°13.772 2°52.536 14.2 251 7.8 101390 84
2002-11-08 08:51:59 51°13.763 2°52.508 13.7 251 7.8 101390 84
2002-11-08 08:52:04 51°13.756 2°52.479 13.9 252 7.8 101410 84
2002-11-08 08:52:08 51°13.748 2°52.458 16 252 7.8 101410 84
2002-11-08 08:52:14 51°13.739 2°52.423 16.6 252 7.8 101400 84
2002-11-08 08:52:19 51°13.73 2°52.396 14.6 251 7.8 101400 84
2002-11-08 08:52:23 51°13.724 2°52.373 15 251 7.8 101400 84
2002-11-08 08:52:28 51°13.715 2°52.345 14.5 252 7.8 101400 84
2002-11-08 08:52:34 51°13.706 2°52.311 15.3 251 7.9 101410 84
2002-11-08 08:52:38 51°13.699 2°52.289 15.3 251 7.9 101410 84
2002-11-08 08:52:44 51°13.689 2°52.255 15.6 252 7.8 101410 84
2002-11-08 08:52:49 51°13.682 2°52.227 14 252 7.8 101410 84
2002-11-08 08:52:54 51°13.673 2°52.199 15.3 252 7.8 101400 84
2002-11-08 08:52:59 51°13.665 2°52.171 16.6 249 7.8 101400 84
2002-11-08 08:53:03 51°13.658 2°52.148 16.1 253 7.8 101400 84
2002-11-08 08:53:08 51°13.649 2°52.121 15.5 249 7.8 101400 84
2002-11-08 08:53:14 51°13.64 2°52.087 13.1 257 7.8 101400 84
2002-11-08 08:53:19 51°13.632 2°52.059 15.5 255 7.8 101400 84
2002-11-08 08:53:24 51°13.623 2°52.031 15.8 249 7.8 101400 84
2002-11-08 08:53:28 51°13.617 2°52.008 13.8 250 7.8 101400 84
2002-11-08 08:53:34 51°13.606 2°51.975 15.8 246 7.9 101400 84
2002-11-08 08:53:38 51°13.599 2°51.954 15.1 247 7.9 101400 84
2002-11-08 08:53:44 51°13.588 2°51.92 15.1 250 7.9 101410 84
2002-11-08 08:53:48 51°13.581 2°51.898 15.4 248 7.9 101410 84
2002-11-08 08:53:54 51°13.57 2°51.865 14.3 247 7.9 101410 84
2002-11-08 08:53:59 51°13.56 2°51.839 16 247 7.9 101410 84
2002-11-08 08:54:03 51°13.553 2°51.816 15.7 248 7.9 101390 84
2002-11-08 08:54:09 51°13.542 2°51.784 14.1 252 7.9 101390 84
2002-11-08 08:54:14 51°13.533 2°51.756 14.6 251 7.9 101400 84
2002-11-08 08:54:19 51°13.523 2°51.729 15.8 249 7.9 101400 84
2002-11-08 08:54:24 51°13.514 2°51.702 15.7 250 8 101400 84
2002-11-08 08:54:28 51°13.506 2°51.681 16.2 249 8 101400 84
2002-11-08 08:54:32 51°13.498 2°51.659 14.4 240 7.9 101400 84
2002-11-08 08:54:39 51°13.485 2°51.621 15.9 247 7.9 101400 84
2002-11-08 08:54:43 51°13.477 2°51.599 14.8 248 8 101410 84
2002-11-08 08:54:48 51°13.468 2°51.572 15.3 246 8 101410 84
2002-11-08 08:54:54 51°13.456 2°51.54 16.7 248 8 101410 84
2002-11-08 08:54:59 51°13.446 2°51.513 15.8 248 8 101410 84
2002-11-08 08:55:04 51°13.437 2°51.486 16.8 246 8 101410 84
2002-11-08 08:55:08 51°13.429 2°51.465 15.4 250 8 101410 84
2002-11-08 08:55:14 51°13.418 2°51.432 16.5 247 8 101400 84
2002-11-08 08:55:19 51°13.408 2°51.405 15.8 250 8 101400 84
2002-11-08 08:55:24 51°13.398 2°51.378 14.8 245 8 101390 83
2002-11-08 08:55:29 51°13.389 2°51.351 15.4 246 8 101390 83
2002-11-08 08:55:32 51°13.382 2°51.336 15.3 249 8 101400 83
2002-11-08 08:55:39 51°13.369 2°51.297 15.3 245 8 101400 83
2002-11-08 08:55:43 51°13.362 2°51.276 14.3 251 8 101400 83
2002-11-08 08:55:48 51°13.352 2°51.248 14.7 247 8 101400 83
2002-11-08 08:55:54 51°13.34 2°51.216 15.8 247 8 101410 83
2002-11-08 08:55:59 51°13.331 2°51.189 15.7 247 8 101410 83
2002-11-08 08:56:04 51°13.321 2°51.163 16.1 242 8 101400 83
2002-11-08 08:56:08 51°13.314 2°51.14 15.3 253 8 101400 83
2002-11-08 08:56:14 51°13.302 2°51.109 13.8 245 8.1 101400 83
2002-11-08 08:56:19 51°13.293 2°51.081 15.6 245 8.1 101400 83
2002-11-08 08:56:24 51°13.283 2°51.054 16.2 246 8 101400 83
2002-11-08 08:56:28 51°13.275 2°51.033 15.6 247 8 101400 83
2002-11-08 08:56:32 51°13.267 2°51.01 16.7 246 8.1 101400 83
2002-11-08 08:56:39 51°13.253 2°50.972 15.3 244 8.1 101400 83
2002-11-08 08:56:44 51°13.243 2°50.944 14.4 252 8.1 101400 83
2002-11-08 08:56:48 51°13.235 2°50.922 16.1 244 8.1 101400 83
2002-11-08 08:56:52 51°13.227 2°50.9 15.8 247 8.1 101390 83
2002-11-08 08:56:59 51°13.213 2°50.86 15.3 247 8.1 101390 83
2002-11-08 08:57:04 51°13.203 2°50.832 15.7 246 8.1 101400 83
2002-11-08 08:57:07 51°13.197 2°50.814 16.4 248 8.1 101400 83
2002-11-08 08:57:14 51°13.183 2°50.775 16.9 244 8.1 101400 83
2002-11-08 08:57:19 51°13.173 2°50.747 16.1 243 8.1 101400 83
2002-11-08 08:57:23 51°13.165 2°50.724 16.6 245 8.1 101390 83
2002-11-08 08:57:27 51°13.157 2°50.7 16.4 248 8.1 101390 83
2002-11-08 08:57:34 51°13.143 2°50.66 16.1 249 8.1 101410 83
2002-11-08 08:57:38 51°13.135 2°50.637 16.5 249 8.1 101410 83
2002-11-08 08:57:43 51°13.125 2°50.608 15.4 249 8.1 101390 82
2002-11-08 08:57:48 51°13.115 2°50.579 17.4 249 8.1 101390 82
2002-11-08 08:57:54 51°13.103 2°50.545 17.1 245 8.1 101400 82
2002-11-08 08:57:59 51°13.093 2°50.515 16 243 8.1 101400 82
2002-11-08 08:58:03 51°13.085 2°50.492 16.4 247 8.1 101400 83
2002-11-08 08:58:08 51°13.074 2°50.463 15.6 243 8.1 101400 83
2002-11-08 08:58:12 51°13.066 2°50.44 16.1 247 8.1 101400 82
2002-11-08 08:58:19 51°13.052 2°50.4 16 248 8.1 101400 82
2002-11-08 08:58:24 51°13.042 2°50.371 16.5 245 8.2 101400 82
2002-11-08 08:58:28 51°13.034 2°50.348 17.8 245 8.2 101400 82
2002-11-08 08:58:32 51°13.026 2°50.324 16.6 245 8.1 101390 82
2002-11-08 08:58:39 51°13.011 2°50.283 15.9 245 8.1 101390 82
2002-11-08 08:58:44 51°13.001 2°50.254 15.6 245 8.1 101400 82
2002-11-08 08:58:48 51°12.992 2°50.231 14.8 242 8.1 101400 82
2002-11-08 08:58:54 51°12.981 2°50.196 16 246 8.2 101400 82
2002-11-08 08:58:59 51°12.97 2°50.167 15.3 245 8.2 101400 82
2002-11-08 08:59:03 51°12.962 2°50.143 15.7 243 8.1 101410 82
2002-11-08 08:59:08 51°12.951 2°50.114 15 244 8.1 101410 82
2002-11-08 08:59:14 51°12.939 2°50.079 15.8 245 8.2 101400 82
2002-11-08 08:59:19 51°12.929 2°50.05 14.3 244 8.2 101400 82
2002-11-08 08:59:23 51°12.921 2°50.026 16.2 244 8.2 101410 82
2002-11-08 08:59:28 51°12.911 2°49.997 15.4 245 8.2 101410 82
2002-11-08 08:59:34 51°12.898 2°49.962 16.5 246 8.2 101400 82
2002-11-08 08:59:39 51°12.888 2°49.932 15.5 247 8.2 101400 82
2002-11-08 08:59:43 51°12.879 2°49.909 15.1 247 8.2 101410 82
2002-11-08 08:59:48 51°12.868 2°49.88 17.5 247 8.2 101410 82
2002-11-08 08:59:54 51°12.856 2°49.845 17.1 244 8.2 101410 82
2002-11-08 08:59:59 51°12.846 2°49.815 16.9 242 8.2 101410 82
2002-11-08 09:00:03 51°12.837 2°49.792 17 242 8.2 101400 82
2002-11-08 09:00:08 51°12.827 2°49.763 16.3 250 8.2 101400 82
2002-11-08 09:00:12 51°12.819 2°49.739 17.8 248 8.3 101400 82
2002-11-08 09:00:19 51°12.805 2°49.698 17.1 247 8.3 101400 82
2002-11-08 09:00:23 51°12.796 2°49.675 16.5 243 8.2 101390 82
2002-11-08 09:00:29 51°12.784 2°49.64 15.5 242 8.2 101390 82
2002-11-08 09:00:33 51°12.775 2°49.616 16 245 8.3 101400 82
2002-11-08 09:00:39 51°12.763 2°49.58 16.9 245 8.3 101400 82
2002-11-08 09:00:43 51°12.755 2°49.557 18 246 8.3 101390 82
2002-11-08 09:00:48 51°12.745 2°49.528 16.6 242 8.3 101390 82
2002-11-08 09:00:52 51°12.736 2°49.505 18.6 247 8.3 101410 82
2002-11-08 09:00:59 51°12.722 2°49.463 16.5 242 8.3 101410 82
2002-11-08 09:01:04 51°12.712 2°49.434 16.8 244 8.3 101390 82
2002-11-08 09:01:08 51°12.704 2°49.411 17 249 8.3 101390 82
2002-11-08 09:01:12 51°12.696 2°49.387 18 244 8.3 101390 82
2002-11-08 09:01:19 51°12.681 2°49.346 16.4 248 8.3 101390 82
2002-11-08 09:01:23 51°12.673 2°49.322 18.5 247 8.3 101400 82
2002-11-08 09:01:28 51°12.663 2°49.293 16.9 243 8.3 101400 82
2002-11-08 09:01:34 51°12.651 2°49.258 17 246 8.3 101410 82
2002-11-08 09:01:39 51°12.641 2°49.228 17.4 247 8.3 101410 82
2002-11-08 09:01:43 51°12.632 2°49.205 15.5 243 8.3 101400 81
2002-11-08 09:01:48 51°12.623 2°49.175 17.5 246 8.3 101400 81
2002-11-08 09:01:53 51°12.612 2°49.146 18.7 246 8.3 101390 81
2002-11-08 09:01:59 51°12.601 2°49.11 17.7 246 8.3 101390 81
2002-11-08 09:02:03 51°12.592 2°49.088 17.2 245 8.3 101400 81
2002-11-08 09:02:07 51°12.584 2°49.063 16.7 241 8.3 101400 81
2002-11-08 09:02:14 51°12.57 2°49.023 15.9 239 8.3 101400 81
2002-11-08 09:02:19 51°12.56 2°48.993 16.9 245 8.3 101400 81
2002-11-08 09:02:24 51°12.549 2°48.964 18.3 244 8.2 101400 81
2002-11-08 09:02:28 51°12.542 2°48.94 17.1 244 8.2 101400 81
2002-11-08 09:02:32 51°12.533 2°48.917 17 246 8.2 101390 80
2002-11-08 09:02:39 51°12.519 2°48.876 17.3 246 8.2 101390 80
2002-11-08 09:02:44 51°12.51 2°48.846 16.6 249 8.2 101400 81
2002-11-08 09:02:48 51°12.501 2°48.822 17.5 247 8.2 101400 81
2002-11-08 09:02:52 51°12.494 2°48.798 17.1 244 8.2 101400 80
2002-11-08 09:02:59 51°12.479 2°48.757 17.8 244 8.2 101400 80
2002-11-08 09:03:04 51°12.469 2°48.728 18.4 247 8.3 101400 81
2002-11-08 09:03:07 51°12.463 2°48.711 17.6 239 8.3 101400 81
2002-11-08 09:03:14 51°12.448 2°48.67 17.4 243 8.3 101390 81
2002-11-08 09:03:19 51°12.438 2°48.641 15.8 244 8.3 101390 81
2002-11-08 09:03:23 51°12.43 2°48.617 15.9 246 8.3 101400 81
2002-11-08 09:03:28 51°12.42 2°48.587 16 250 8.3 101400 81
2002-11-08 09:03:32 51°12.412 2°48.564 17 245 8.3 101390 81
2002-11-08 09:03:39 51°12.398 2°48.523 16.9 248 8.3 101390 81
2002-11-08 09:03:43 51°12.389 2°48.5 16.8 248 8.2 101380 80
2002-11-08 09:03:48 51°12.38 2°48.47 16.7 251 8.2 101380 80
2002-11-08 09:03:54 51°12.367 2°48.435 16.5 248 8.2 101400 80
2002-11-08 09:03:59 51°12.357 2°48.405 15.8 246 8.2 101400 80
2002-11-08 09:04:04 51°12.347 2°48.376 16.2 246 8.2 101390 80
2002-11-08 09:04:08 51°12.339 2°48.353 17.5 246 8.2 101390 80
2002-11-08 09:04:13 51°12.329 2°48.324 17 243 8.2 101400 80
2002-11-08 09:04:19 51°12.316 2°48.289 17.5 248 8.2 101400 80
2002-11-08 09:04:23 51°12.309 2°48.265 16.9 245 8.2 101390 81
2002-11-08 09:04:28 51°12.299 2°48.236 17 249 8.2 101390 81
2002-11-08 09:04:32 51°12.29 2°48.213 17.2 251 8.2 101390 81
2002-11-08 09:04:39 51°12.276 2°48.172 17.3 244 8.2 101390 81
2002-11-08 09:04:44 51°12.267 2°48.142 16.6 247 8.2 101380 81
2002-11-08 09:04:48 51°12.258 2°48.119 16 248 8.2 101380 81
2002-11-08 09:04:54 51°12.247 2°48.084 16.7 250 8.2 101390 81
2002-11-08 09:04:59 51°12.236 2°48.054 15.8 247 8.2 101390 81
2002-11-08 09:05:03 51°12.228 2°48.031 16.2 251 8.2 101380 81
2002-11-08 09:05:08 51°12.218 2°48.001 16.2 250 8.2 101380 81
2002-11-08 09:05:14 51°12.208 2°47.965 14.5 251 8.2 101390 81
2002-11-08 09:05:19 51°12.198 2°47.935 16.2 245 8.2 101390 81
2002-11-08 09:05:23 51°12.192 2°47.911 15.4 250 8.2 101390 81
2002-11-08 09:05:28 51°12.182 2°47.881 17.9 247 8.2 101390 81
2002-11-08 09:05:34 51°12.171 2°47.845 17.2 254 8.2 101390 81
2002-11-08 09:05:39 51°12.162 2°47.815 15.7 245 8.2 101390 81
2002-11-08 09:05:44 51°12.155 2°47.784 17 252 8.2 101400 81
2002-11-08 09:05:48 51°12.147 2°47.76 18 244 8.2 101400 81
2002-11-08 09:05:52 51°12.142 2°47.735 17.2 252 8.2 101390 81
2002-11-08 09:05:59 51°12.131 2°47.691 16.1 251 8.2 101390 81
2002-11-08 09:06:03 51°12.124 2°47.667 15.9 250 8.2 101380 81
2002-11-08 09:06:08 51°12.117 2°47.636 16.1 253 8.2 101380 81
2002-11-08 09:06:14 51°12.108 2°47.598 16.7 250 8.2 101390 81
2002-11-08 09:06:19 51°12.101 2°47.567 16.7 255 8.2 101390 81
2002-11-08 09:06:24 51°12.093 2°47.536 17 251 8.2 101400 81
2002-11-08 09:06:28 51°12.088 2°47.51 18.7 253 8.2 101400 81
2002-11-08 09:06:34 51°12.079 2°47.473 16.6 252 8.2 101400 81
2002-11-08 09:06:39 51°12.072 2°47.441 16.9 252 8.2 101400 81
2002-11-08 09:06:43 51°12.066 2°47.416 15.5 250 8.2 101380 81
2002-11-08 09:06:48 51°12.059 2°47.385 16.5 253 8.2 101380 81
2002-11-08 09:06:52 51°12.053 2°47.36 17.9 254 8.2 101380 81
2002-11-08 09:06:59 51°12.043 2°47.316 16.3 247 8.2 101380 81
2002-11-08 09:07:03 51°12.038 2°47.291 16.4 248 8.2 101380 81
2002-11-08 09:07:08 51°12.03 2°47.259 16.5 247 8.2 101380 81
2002-11-08 09:07:14 51°12.021 2°47.222 15.3 254 8.2 101380 81
2002-11-08 09:07:19 51°12.014 2°47.19 19.5 250 8.2 101380 81
2002-11-08 09:07:23 51°12.008 2°47.166 17.6 253 8.2 101380 81
2002-11-08 09:07:28 51°12 2°47.134 17.2 252 8.2 101380 81
2002-11-08 09:07:34 51°11.991 2°47.097 16.3 251 8.2 101380 81
2002-11-08 09:07:39 51°11.984 2°47.065 16.4 250 8.2 101380 81
2002-11-08 09:07:44 51°11.977 2°47.034 15.4 250 8.2 101380 81
2002-11-08 09:07:48 51°11.97 2°47.009 15.5 250 8.2 101380 81
2002-11-08 09:07:52 51°11.965 2°46.983 18.2 255 8.2 101380 81
2002-11-08 09:07:59 51°11.955 2°46.94 16.6 251 8.2 101380 81
2002-11-08 09:08:04 51°11.948 2°46.908 17.8 249 8.2 101390 81
2002-11-08 09:08:08 51°11.941 2°46.883 17.7 253 8.2 101390 81
2002-11-08 09:08:14 51°11.933 2°46.845 16.8 253 8.2 101380 82
2002-11-08 09:08:19 51°11.926 2°46.814 17 254 8.2 101380 82
2002-11-08 09:08:24 51°11.919 2°46.783 17.4 251 8.3 101380 82
2002-11-08 09:08:28 51°11.913 2°46.758 16.4 251 8.3 101380 82
2002-11-08 09:08:34 51°11.904 2°46.72 16.5 251 8.2 101390 81
2002-11-08 09:08:39 51°11.897 2°46.689 16.5 250 8.2 101390 81
2002-11-08 09:08:44 51°11.89 2°46.657 16.5 251 8.3 101390 81
2002-11-08 09:08:47 51°11.885 2°46.638 17.2 247 8.3 101390 81
2002-11-08 09:08:53 51°11.876 2°46.601 15.1 251 8.3 101390 81
2002-11-08 09:08:58 51°11.868 2°46.57 14.7 250 8.3 101390 81
2002-11-08 09:09:04 51°11.86 2°46.532 15.7 252 8.2 101380 81
2002-11-08 09:09:08 51°11.854 2°46.507 18.6 247 8.2 101380 81
2002-11-08 09:09:14 51°11.846 2°46.469 19.2 252 8.3 101380 81
2002-11-08 09:09:19 51°11.838 2°46.437 18.9 248 8.3 101380 81
2002-11-08 09:09:24 51°11.831 2°46.406 18 252 8.2 101390 81
2002-11-08 09:09:28 51°11.825 2°46.381 16.1 252 8.2 101390 81
2002-11-08 09:09:34 51°11.817 2°46.343 17 251 8.3 101390 81
2002-11-08 09:09:39 51°11.809 2°46.312 16.7 248 8.3 101390 81
2002-11-08 09:09:44 51°11.802 2°46.28 17 249 8.3 101380 81
2002-11-08 09:09:48 51°11.796 2°46.256 16.9 248 8.3 101380 81
2002-11-08 09:09:54 51°11.787 2°46.218 16.6 248 8.3 101380 81
2002-11-08 09:09:59 51°11.779 2°46.187 16.6 250 8.3 101380 81
2002-11-08 09:10:04 51°11.772 2°46.155 16.7 251 8.3 101380 81
2002-11-08 09:10:08 51°11.765 2°46.13 16 251 8.3 101380 81
2002-11-08 09:10:12 51°11.759 2°46.105 16.7 247 8.3 101400 81
2002-11-08 09:10:19 51°11.749 2°46.061 17.8 248 8.3 101400 81
2002-11-08 09:10:24 51°11.742 2°46.029 16.9 251 8.3 101390 81
2002-11-08 09:10:28 51°11.736 2°46.004 14.2 252 8.3 101390 81
2002-11-08 09:10:34 51°11.728 2°45.966 16.4 253 8.3 101390 81
2002-11-08 09:10:38 51°11.722 2°45.941 16 248 8.3 101390 81
2002-11-08 09:10:44 51°11.713 2°45.903 16.8 250 8.3 101390 81
2002-11-08 09:10:48 51°11.707 2°45.878 17 252 8.3 101390 81
2002-11-08 09:10:53 51°11.7 2°45.847 16.5 253 8.3 101390 81
2002-11-08 09:10:59 51°11.692 2°45.809 17.6 251 8.3 101390 81
2002-11-08 09:11:03 51°11.686 2°45.784 16.5 253 8.4 101400 82
2002-11-08 09:11:08 51°11.679 2°45.753 16 252 8.4 101400 82
2002-11-08 09:11:14 51°11.67 2°45.716 16.2 250 8.4 101390 82
2002-11-08 09:11:19 51°11.663 2°45.684 17.5 253 8.4 101390 82
2002-11-08 09:11:24 51°11.656 2°45.653 18.3 253 8.4 101390 82
2002-11-08 09:11:28 51°11.65 2°45.628 17.1 246 8.4 101390 82
2002-11-08 09:11:34 51°11.641 2°45.59 17.3 251 8.4 101380 81
2002-11-08 09:11:39 51°11.634 2°45.558 16.3 247 8.4 101380 81
2002-11-08 09:11:44 51°11.626 2°45.527 15.4 252 8.3 101380 81
2002-11-08 09:11:48 51°11.621 2°45.502 17.9 250 8.3 101380 81
2002-11-08 09:11:52 51°11.615 2°45.477 17.4 250 8.3 101380 81
2002-11-08 09:11:59 51°11.604 2°45.433 17.8 248 8.3 101380 81
2002-11-08 09:12:03 51°11.599 2°45.408 17.4 250 8.3 101390 81
2002-11-08 09:12:08 51°11.591 2°45.377 17.6 249 8.3 101390 81
2002-11-08 09:12:14 51°11.583 2°45.338 16.3 252 8.3 101380 81
2002-11-08 09:12:19 51°11.576 2°45.307 16.9 251 8.3 101380 81
2002-11-08 09:12:24 51°11.569 2°45.276 18.1 252 8.3 101380 81
2002-11-08 09:12:28 51°11.563 2°45.251 17.4 254 8.3 101380 81
2002-11-08 09:12:34 51°11.555 2°45.213 16.3 250 8.3 101380 81
2002-11-08 09:12:39 51°11.548 2°45.181 16.5 253 8.3 101380 81
2002-11-08 09:12:43 51°11.542 2°45.156 15.5 250 8.3 101380 81
2002-11-08 09:12:48 51°11.535 2°45.125 16.7 252 8.3 101380 81
2002-11-08 09:12:53 51°11.527 2°45.093 18.9 249 8.3 101380 80
2002-11-08 09:12:59 51°11.519 2°45.056 16.2 251 8.3 101380 80
2002-11-08 09:13:03 51°11.513 2°45.03 17.4 249 8.3 101370 81
2002-11-08 09:13:08 51°11.506 2°44.999 17.1 249 8.3 101370 81
2002-11-08 09:13:13 51°11.499 2°44.968 18.5 253 8.3 101390 81
2002-11-08 09:13:19 51°11.49 2°44.93 17.8 247 8.3 101390 81
2002-11-08 09:13:23 51°11.484 2°44.905 17.1 253 8.3 101380 81
2002-11-08 09:13:28 51°11.477 2°44.873 16.2 251 8.3 101380 81
2002-11-08 09:13:33 51°11.47 2°44.842 16.5 252 8.3 101380 81
2002-11-08 09:13:39 51°11.461 2°44.804 17.5 250 8.3 101380 81
2002-11-08 09:13:43 51°11.455 2°44.779 18.5 251 8.2 101380 80
2002-11-08 09:13:48 51°11.448 2°44.748 16.5 249 8.2 101380 80
2002-11-08 09:13:53 51°11.44 2°44.716 16.4 250 8.3 101380 81
2002-11-08 09:13:59 51°11.432 2°44.678 17 252 8.3 101380 81
2002-11-08 09:14:04 51°11.424 2°44.646 16.5 254 8.2 101380 80
2002-11-08 09:14:08 51°11.419 2°44.621 17.3 250 8.2 101380 80
2002-11-08 09:14:12 51°11.413 2°44.596 14.8 258 8.3 101370 81
2002-11-08 09:14:19 51°11.402 2°44.552 16.5 253 8.3 101370 81
2002-11-08 09:14:24 51°11.395 2°44.52 16.6 250 8.3 101380 81
2002-11-08 09:14:28 51°11.389 2°44.495 16.9 254 8.3 101380 81
2002-11-08 09:14:33 51°11.382 2°44.463 14.9 251 8.3 101390 81
2002-11-08 09:14:39 51°11.374 2°44.425 16.8 252 8.3 101390 81
2002-11-08 09:14:43 51°11.367 2°44.4 15 251 8.3 101380 81
2002-11-08 09:14:48 51°11.361 2°44.368 16.1 254 8.3 101380 81
2002-11-08 09:14:52 51°11.354 2°44.343 17.1 250 8.3 101380 81
2002-11-08 09:14:59 51°11.344 2°44.298 15.5 252 8.3 101380 81
2002-11-08 09:15:04 51°11.338 2°44.266 15.1 251 8.3 101390 81
2002-11-08 09:15:08 51°11.332 2°44.241 16 253 8.3 101390 81
2002-11-08 09:15:14 51°11.324 2°44.203 14.2 251 8.3 101380 81
2002-11-08 09:15:19 51°11.318 2°44.171 15.9 249 8.3 101380 81
2002-11-08 09:15:23 51°11.313 2°44.145 17.1 252 8.3 101380 81
2002-11-08 09:15:28 51°11.307 2°44.113 15.6 250 8.3 101380 81
2002-11-08 09:15:33 51°11.301 2°44.08 15.6 256 8.3 101370 81
2002-11-08 09:15:39 51°11.295 2°44.041 15.8 253 8.3 101370 81
2002-11-08 09:15:44 51°11.289 2°44.009 15.6 255 8.3 101370 81
2002-11-08 09:15:49 51°11.284 2°43.977 16.1 254 8.3 101370 81
2002-11-08 09:15:54 51°11.279 2°43.944 17.1 253 8.3 101380 81
2002-11-08 09:15:59 51°11.273 2°43.912 15.4 255 8.3 101380 81
2002-11-08 09:16:04 51°11.268 2°43.879 15.6 258 8.3 101370 81
2002-11-08 09:16:08 51°11.264 2°43.853 17.1 256 8.3 101370 81
2002-11-08 09:16:12 51°11.259 2°43.827 15.8 259 8.3 101380 81
2002-11-08 09:16:19 51°11.252 2°43.781 16.2 257 8.3 101380 81
2002-11-08 09:16:23 51°11.248 2°43.755 16 256 8.3 101380 81
2002-11-08 09:16:28 51°11.242 2°43.722 15 252 8.3 101380 81
2002-11-08 09:16:32 51°11.238 2°43.696 17.4 255 8.3 101380 81
2002-11-08 09:16:39 51°11.231 2°43.65 17.3 258 8.3 101380 81
2002-11-08 09:16:43 51°11.226 2°43.624 17.8 258 8.3 101380 81
2002-11-08 09:16:48 51°11.221 2°43.592 16.9 254 8.3 101380 81
2002-11-08 09:16:54 51°11.215 2°43.553 16.9 254 8.3 101370 81
2002-11-08 09:16:59 51°11.21 2°43.52 17.4 253 8.3 101370 81
2002-11-08 09:17:03 51°11.206 2°43.494 17.6 255 8.3 101370 81
2002-11-08 09:17:08 51°11.202 2°43.461 17.4 254 8.3 101370 81
2002-11-08 09:17:13 51°11.197 2°43.428 15.7 258 8.3 101370 81
2002-11-08 09:17:19 51°11.191 2°43.389 17.8 256 8.3 101370 81
2002-11-08 09:17:24 51°11.187 2°43.356 17.1 260 8.3 101370 81
2002-11-08 09:17:28 51°11.182 2°43.33 15.6 258 8.3 101370 81
2002-11-08 09:17:34 51°11.177 2°43.291 16.1 259 8.2 101370 81
2002-11-08 09:17:39 51°11.172 2°43.258 15.5 258 8.2 101370 81
2002-11-08 09:17:44 51°11.168 2°43.225 17.6 255 8.3 101360 81
2002-11-08 09:17:48 51°11.164 2°43.199 16.4 257 8.3 101360 81
2002-11-08 09:17:52 51°11.16 2°43.173 17.2 252 8.3 101360 81
2002-11-08 09:17:59 51°11.152 2°43.128 17.5 257 8.3 101360 81
2002-11-08 09:18:03 51°11.147 2°43.103 17.7 257 8.3 101370 81
2002-11-08 09:18:08 51°11.142 2°43.071 16.4 262 8.3 101370 81
2002-11-08 09:18:14 51°11.137 2°43.035 16.3 260 8.3 101370 81
2002-11-08 09:18:19 51°11.133 2°43.006 15.8 265 8.3 101370 81
2002-11-08 09:18:23 51°11.13 2°42.985 14.6 262 8.3 101360 81
2002-11-08 09:18:28 51°11.127 2°42.96 14.2 262 8.3 101360 81
2002-11-08 09:18:32 51°11.125 2°42.941 13.9 263 8.3 101370 81
2002-11-08 09:18:38 51°11.123 2°42.914 14 268 8.3 101370 81
2002-11-08 09:18:44 51°11.121 2°42.888 13.7 270 8.3 101360 81
2002-11-08 09:18:48 51°11.119 2°42.873 12.8 273 8.3 101360 81
2002-11-08 09:18:53 51°11.118 2°42.854 12.4 271 8.3 101370 81
2002-11-08 09:18:59 51°11.116 2°42.833 12 273 8.3 101370 81
2002-11-08 09:19:03 51°11.115 2°42.82 11.8 272 8.3 101370 81
2002-11-08 09:19:08 51°11.113 2°42.804 11.7 272 8.3 101370 81
2002-11-08 09:19:12 51°11.112 2°42.792 11.8 265 8.3 101370 81
2002-11-08 09:19:19 51°11.11 2°42.772 12.9 267 8.3 101370 81
2002-11-08 09:19:23 51°11.108 2°42.761 12.7 269 8.3 101380 81
2002-11-08 09:19:28 51°11.106 2°42.748 12.4 266 8.3 101380 81
2002-11-08 09:19:34 51°11.103 2°42.734 11.7 263 8.3 101380 81
2002-11-08 09:19:39 51°11.101 2°42.723 10.4 273 8.3 101380 81
2002-11-08 09:19:43 51°11.1 2°42.716 11 279 8.3 101390 81
2002-11-08 09:19:48 51°11.099 2°42.708 10.5 279 8.3 101390 81
2002-11-08 09:19:52 51°11.098 2°42.702 10.8 280 8.3 101380 81
2002-11-08 09:19:59 51°11.097 2°42.694 10.6 285 8.3 101380 81
2002-11-08 09:20:04 51°11.097 2°42.689 10.4 290 8.3 101390 81
2002-11-08 09:20:08 51°11.097 2°42.686 9.8 295 8.3 101390 81
2002-11-08 09:20:14 51°11.096 2°42.683 10.2 296 8.3 101390 81
2002-11-08 09:20:19 51°11.095 2°42.681 8 307 8.3 101390 81
2002-11-08 09:20:23 51°11.095 2°42.68 7.3 316 8.3 101390 81
2002-11-08 09:20:28 51°11.094 2°42.678 6.4 300 8.3 101390 81
2002-11-08 09:20:33 51°11.094 2°42.677 4.6 328 8.3 101400 81
2002-11-08 09:20:39 51°11.093 2°42.675 4.2 298 8.3 101400 81
2002-11-08 09:20:44 51°11.093 2°42.674 4 293 8.3 101390 81
2002-11-08 09:20:50 51°11.092 2°42.671 3.4 317 8.3 101390 81
2002-11-08 09:20:55 51°11.091 2°42.67 3.3 297 8.3 101390 81
2002-11-08 09:21:00 51°11.091 2°42.668 3.7 298 8.3 101390 81
2002-11-08 09:21:04 51°11.091 2°42.667 2.7 298 8.4 101400 82
2002-11-08 09:21:10 51°11.09 2°42.665 3 296 8.4 101400 82
2002-11-08 09:21:15 51°11.089 2°42.663 3 310 8.3 101400 81
2002-11-08 09:21:20 51°11.089 2°42.661 3.5 315 8.3 101400 81
2002-11-08 09:21:24 51°11.089 2°42.66 4.7 313 8.3 101400 81
2002-11-08 09:21:30 51°11.088 2°42.658 1.6 336 8.3 101400 81
2002-11-08 09:21:34 51°11.088 2°42.657 2.1 333 8.3 101400 81
2002-11-08 09:21:39 51°11.088 2°42.655 1.2 333 8.3 101400 81
2002-11-08 09:21:44 51°11.087 2°42.653 2.1 327 8.3 101400 81
2002-11-08 09:21:48 51°11.087 2°42.652 2.3 317 8.3 101400 81
2002-11-08 09:21:53 51°11.086 2°42.651 1.6 338 8.3 101400 81
2002-11-08 09:21:59 51°11.086 2°42.648 1.4 325 8.3 101400 81
2002-11-08 09:22:04 51°11.085 2°42.647 1 325 8.4 101400 82
2002-11-08 09:22:09 51°11.085 2°42.645 2.8 333 8.4 101400 82
2002-11-08 09:22:12 51°11.085 2°42.644 1.5 339 8.4 101400 82
2002-11-08 09:22:19 51°11.085 2°42.642 1.4 330 8.4 101400 82
2002-11-08 09:22:23 51°11.084 2°42.641 1.2 327 8.4 101400 82
2002-11-08 09:22:28 51°11.084 2°42.639 0.7 344 8.4 101400 82
2002-11-08 09:22:35 51°11.083 2°42.636 2.8 335 8.4 101400 82
2002-11-08 09:22:39 51°11.083 2°42.635 1.4 341 8.4 101400 82
2002-11-08 09:22:44 51°11.083 2°42.633 2.9 325 8.3 101400 82
2002-11-08 09:22:48 51°11.083 2°42.632 1.8 332 8.3 101400 82
2002-11-08 09:22:54 51°11.083 2°42.63 2.2 339 8.3 101400 81
2002-11-08 09:22:59 51°11.083 2°42.629 2.4 350 8.3 101400 81
2002-11-08 09:23:03 51°11.083 2°42.627 1.5 330 8.3 101400 81
2002-11-08 09:23:08 51°11.083 2°42.625 0.8 327 8.3 101400 81
2002-11-08 09:23:12 51°11.083 2°42.624 1.3 332 8.3 101400 82
2002-11-08 09:23:19 51°11.083 2°42.621 2.1 303 8.3 101400 82
2002-11-08 09:23:23 51°11.083 2°42.619 1.4 326 8.3 101400 81
2002-11-08 09:23:28 51°11.084 2°42.616 3.9 343 8.3 101400 81
2002-11-08 09:23:34 51°11.084 2°42.613 2.3 330 8.3 101400 82
2002-11-08 09:23:38 51°11.084 2°42.611 2.9 336 8.3 101400 82
2002-11-08 09:23:44 51°11.085 2°42.608 2.7 325 8.3 101400 82
2002-11-08 09:23:48 51°11.086 2°42.605 0.5 328 8.3 101400 82
2002-11-08 09:23:53 51°11.086 2°42.602 1.8 347 8.3 101400 82
2002-11-08 09:23:59 51°11.088 2°42.598 1.8 327 8.3 101400 82
2002-11-08 09:24:03 51°11.088 2°42.596 1.9 348 8.3 101400 81
2002-11-08 09:24:08 51°11.089 2°42.592 1.1 345 8.3 101400 81
2002-11-08 09:24:12 51°11.09 2°42.589 1.6 336 8.3 101400 81
2002-11-08 09:24:19 51°11.092 2°42.584 2.2 338 8.3 101400 81
2002-11-08 09:24:24 51°11.094 2°42.58 2.3 321 8.3 101400 82
2002-11-08 09:24:28 51°11.095 2°42.576 1.5 339 8.3 101400 82
2002-11-08 09:24:34 51°11.096 2°42.571 1.9 319 8.3 101400 82
2002-11-08 09:24:39 51°11.098 2°42.567 1.9 323 8.3 101400 82
2002-11-08 09:24:44 51°11.1 2°42.562 1.9 348 8.3 101400 81
2002-11-08 09:24:48 51°11.101 2°42.558 1.7 324 8.3 101400 81
2002-11-08 09:24:52 51°11.103 2°42.554 2.2 328 8.2 101400 81
2002-11-08 09:24:59 51°11.105 2°42.547 3.4 324 8.2 101400 81
2002-11-08 09:25:04 51°11.107 2°42.542 2.4 320 8.2 101400 81
2002-11-08 09:25:09 51°11.11 2°42.537 1 327 8.2 101400 81
2002-11-08 09:25:12 51°11.111 2°42.534 1.5 332 8.2 101400 81
2002-11-08 09:25:19 51°11.114 2°42.527 3.6 337 8.2 101400 81
2002-11-08 09:25:24 51°11.116 2°42.522 1.4 340 8.2 101390 81
2002-11-08 09:25:28 51°11.118 2°42.518 1.6 336 8.2 101390 81
2002-11-08 09:25:32 51°11.12 2°42.514 3.5 344 8.2 101400 81
2002-11-08 09:25:39 51°11.123 2°42.507 3.8 326 8.2 101400 81
2002-11-08 09:25:43 51°11.125 2°42.503 5.4 335 8.1 101400 81
2002-11-08 09:25:48 51°11.127 2°42.498 5.7 339 8.1 101400 81
2002-11-08 09:25:54 51°11.13 2°42.493 4.8 341 8.1 101400 81
2002-11-08 09:25:59 51°11.133 2°42.489 6.8 347 8.1 101400 81
2002-11-08 09:26:04 51°11.135 2°42.485 6.2 348 8.1 101400 81
2002-11-08 09:26:08 51°11.137 2°42.481 6.5 351 8.1 101400 81
2002-11-08 09:26:12 51°11.139 2°42.478 7.2 359 8.1 101400 81
2002-11-08 09:26:19 51°11.142 2°42.473 7.1 348 8.1 101400 81
2002-11-08 09:26:23 51°11.144 2°42.47 8.3 355 8.1 101400 81
2002-11-08 09:26:28 51°11.147 2°42.466 7.6 5 8.1 101400 81
2002-11-08 09:26:34 51°11.149 2°42.462 4.5 344 8.1 101400 81
2002-11-08 09:26:38 51°11.151 2°42.459 4.4 338 8.1 101400 81
2002-11-08 09:26:44 51°11.154 2°42.455 3 328 8.1 101400 81
2002-11-08 09:26:48 51°11.155 2°42.452 6.4 352 8.1 101400 81
2002-11-08 09:26:54 51°11.157 2°42.448 5.5 346 8.2 101390 82
2002-11-08 09:26:59 51°11.159 2°42.444 6.4 345 8.2 101390 82
2002-11-08 09:27:03 51°11.161 2°42.442 6.3 356 8.2 101400 82
2002-11-08 09:27:08 51°11.162 2°42.438 7 359 8.2 101400 82
2002-11-08 09:27:12 51°11.164 2°42.436 6.8 348 8.2 101400 82
2002-11-08 09:27:19 51°11.166 2°42.431 7.7 6 8.2 101400 82
2002-11-08 09:27:24 51°11.168 2°42.428 7.7 353 8.3 101400 82
2002-11-08 09:27:28 51°11.169 2°42.425 4.6 340 8.3 101400 82
2002-11-08 09:27:34 51°11.171 2°42.422 6.8 353 8.3 101400 83
2002-11-08 09:27:39 51°11.172 2°42.418 5.6 349 8.3 101400 83
2002-11-08 09:27:44 51°11.174 2°42.415 6.5 350 8.3 101400 83
2002-11-08 09:27:48 51°11.175 2°42.413 8 355 8.3 101400 83
2002-11-08 09:27:52 51°11.176 2°42.41 6.2 353 8.3 101390 82
2002-11-08 09:27:59 51°11.178 2°42.405 5.4 349 8.3 101390 82
2002-11-08 09:28:03 51°11.178 2°42.403 5.6 348 8.3 101390 82
2002-11-08 09:28:08 51°11.18 2°42.4 7.8 351 8.3 101390 82
2002-11-08 09:28:14 51°11.181 2°42.396 7.1 346 8.3 101390 82
2002-11-08 09:28:19 51°11.182 2°42.393 1.8 324 8.3 101390 82
2002-11-08 09:28:24 51°11.183 2°42.39 2.6 337 8.2 101390 82
2002-11-08 09:28:28 51°11.184 2°42.388 2.8 350 8.2 101390 82
2002-11-08 09:28:34 51°11.185 2°42.384 4.1 350 8.2 101390 82
2002-11-08 09:28:39 51°11.186 2°42.381 2.1 343 8.2 101390 82
2002-11-08 09:28:44 51°11.187 2°42.378 1.4 342 8.3 101390 82
2002-11-08 09:28:48 51°11.187 2°42.376 2.6 347 8.3 101390 82
2002-11-08 09:28:54 51°11.188 2°42.373 1.8 350 8.3 101390 82
2002-11-08 09:28:58 51°11.189 2°42.371 7.2 1 8.3 101390 82
2002-11-08 09:29:04 51°11.19 2°42.368 3.7 341 8.3 101390 82
2002-11-08 09:29:08 51°11.191 2°42.366 2.7 341 8.3 101390 82
2002-11-08 09:29:12 51°11.191 2°42.363 3 342 8.3 101380 82
2002-11-08 09:29:19 51°11.192 2°42.36 3.8 347 8.3 101380 82
2002-11-08 09:29:23 51°11.193 2°42.358 1.6 337 8.3 101390 82
2002-11-08 09:29:28 51°11.193 2°42.356 3.2 350 8.3 101390 82
2002-11-08 09:29:32 51°11.194 2°42.354 2.2 345 8.2 101390 81
2002-11-08 09:29:39 51°11.194 2°42.35 1.8 323 8.2 101390 81
2002-11-08 09:29:43 51°11.195 2°42.348 1.9 319 8.2 101390 82
2002-11-08 09:29:48 51°11.196 2°42.345 1.5 321 8.2 101390 82
2002-11-08 09:29:54 51°11.196 2°42.343 0.6 343 8.2 101390 81
2002-11-08 09:29:59 51°11.197 2°42.34 2.9 328 8.2 101390 81
2002-11-08 09:30:03 51°11.197 2°42.339 4 333 8.2 101390 81
2002-11-08 09:30:08 51°11.198 2°42.336 2.4 335 8.2 101390 81
2002-11-08 09:30:13 51°11.198 2°42.333 1.3 332 8.2 101390 82
2002-11-08 09:30:19 51°11.198 2°42.33 1.6 332 8.2 101390 82
2002-11-08 09:30:24 51°11.199 2°42.328 2.3 329 8.2 101390 82
2002-11-08 09:30:29 51°11.199 2°42.326 2.4 329 8.2 101390 82
2002-11-08 09:30:34 51°11.199 2°42.323 2.5 336 8.3 101390 82
2002-11-08 09:30:39 51°11.2 2°42.321 1.3 321 8.3 101390 82
2002-11-08 09:30:44 51°11.2 2°42.318 1.6 331 8.3 101390 83
2002-11-08 09:30:48 51°11.2 2°42.316 2 329 8.3 101390 83
2002-11-08 09:30:54 51°11.201 2°42.314 2.2 319 8.3 101390 83
2002-11-08 09:30:59 51°11.201 2°42.311 1.2 318 8.3 101390 83
2002-11-08 09:31:04 51°11.201 2°42.309 1.4 308 8.4 101390 83
2002-11-08 09:31:09 51°11.201 2°42.306 2.3 321 8.4 101390 83
2002-11-08 09:31:12 51°11.202 2°42.305 1.5 320 8.3 101410 82
2002-11-08 09:31:19 51°11.202 2°42.302 2.1 299 8.3 101410 82
2002-11-08 09:31:24 51°11.202 2°42.299 1.8 319 8.4 101390 82
2002-11-08 09:31:28 51°11.202 2°42.297 2.7 338 8.4 101390 82
2002-11-08 09:31:34 51°11.202 2°42.294 3.1 309 8.4 101400 83
2002-11-08 09:31:39 51°11.202 2°42.292 3.3 317 8.4 101400 83
2002-11-08 09:31:43 51°11.203 2°42.29 3.5 293 8.3 101410 82
2002-11-08 09:31:48 51°11.203 2°42.288 3 316 8.3 101410 82
2002-11-08 09:31:54 51°11.203 2°42.285 3.3 337 8.3 101400 82
2002-11-08 09:31:59 51°11.203 2°42.282 2.8 319 8.3 101400 82
2002-11-08 09:32:03 51°11.204 2°42.281 3.5 320 8.3 101400 82
2002-11-08 09:32:09 51°11.204 2°42.278 2.9 304 8.3 101400 82
2002-11-08 09:32:12 51°11.204 2°42.276 2.4 304 8.3 101400 82
2002-11-08 09:32:19 51°11.204 2°42.273 3.8 332 8.3 101400 82
2002-11-08 09:32:23 51°11.204 2°42.271 3.7 343 8.3 101400 82
2002-11-08 09:32:28 51°11.205 2°42.269 2.2 318 8.3 101400 82
2002-11-08 09:32:34 51°11.205 2°42.266 4.4 290 8.2 101410 82
2002-11-08 09:32:39 51°11.205 2°42.264 4.2 313 8.2 101410 82
2002-11-08 09:32:43 51°11.205 2°42.262 2.2 323 8.2 101400 82
2002-11-08 09:32:48 51°11.205 2°42.26 5.1 318 8.2 101400 82
2002-11-08 09:32:52 51°11.205 2°42.258 3.6 317 8.3 101400 82
2002-11-08 09:32:59 51°11.206 2°42.255 4.4 333 8.3 101400 82
2002-11-08 09:33:03 51°11.206 2°42.253 6.2 310 8.2 101400 82
2002-11-08 09:33:08 51°11.206 2°42.251 4.7 315 8.2 101400 82
2002-11-08 09:33:13 51°11.206 2°42.248 4.2 317 8.2 101400 81
2002-11-08 09:33:19 51°11.207 2°42.246 4.1 315 8.2 101400 81
2002-11-08 09:33:24 51°11.207 2°42.244 4.1 321 8.2 101400 81
2002-11-08 09:33:28 51°11.207 2°42.242 4.3 319 8.2 101400 81
2002-11-08 09:33:33 51°11.208 2°42.239 4 340 8.2 101400 81
2002-11-08 09:33:39 51°11.208 2°42.237 3.8 332 8.2 101400 81
2002-11-08 09:33:43 51°11.208 2°42.235 5.1 323 8.2 101400 81
2002-11-08 09:33:49 51°11.208 2°42.233 3.9 330 8.2 101400 81
2002-11-08 09:33:54 51°11.208 2°42.231 4.4 318 8.1 101410 81
2002-11-08 09:33:58 51°11.208 2°42.229 3.5 290 8.1 101410 81
2002-11-08 09:34:04 51°11.209 2°42.226 3.8 287 8.1 101390 81
2002-11-08 09:34:08 51°11.209 2°42.225 3.5 310 8.1 101390 81
2002-11-08 09:34:12 51°11.209 2°42.223 4.3 306 8.1 101400 81
2002-11-08 09:34:19 51°11.209 2°42.22 4.5 313 8.1 101400 81
2002-11-08 09:34:23 51°11.209 2°42.219 2.5 300 8.1 101400 81
2002-11-08 09:34:28 51°11.209 2°42.216 4.1 325 8.1 101400 81
2002-11-08 09:34:34 51°11.21 2°42.214 3.4 317 8.1 101390 81
2002-11-08 09:34:39 51°11.21 2°42.212 4.9 304 8.1 101390 81
2002-11-08 09:34:43 51°11.21 2°42.21 3.7 324 8.2 101390 81
2002-11-08 09:34:48 51°11.21 2°42.209 5.4 319 8.2 101390 81
2002-11-08 09:34:52 51°11.21 2°42.207 4.6 297 8.2 101400 82
2002-11-08 09:34:59 51°11.21 2°42.204 4.7 303 8.2 101400 82
2002-11-08 09:35:03 51°11.211 2°42.203 4.4 289 8.3 101390 82
2002-11-08 09:35:08 51°11.211 2°42.201 4.9 301 8.3 101390 82
2002-11-08 09:35:13 51°11.211 2°42.199 4.1 306 8.2 101400 82
2002-11-08 09:35:19 51°11.211 2°42.197 4 313 8.2 101400 82
2002-11-08 09:35:24 51°11.211 2°42.195 4.3 311 8.3 101400 82
2002-11-08 09:35:28 51°11.211 2°42.193 5.1 310 8.3 101400 82
2002-11-08 09:35:33 51°11.211 2°42.192 3.7 332 8.3 101390 82
2002-11-08 09:35:39 51°11.211 2°42.189 4 321 8.3 101390 82
2002-11-08 09:35:43 51°11.211 2°42.188 2.2 312 8.3 101390 82
2002-11-08 09:35:48 51°11.212 2°42.186 2 325 8.3 101390 82
2002-11-08 09:35:54 51°11.213 2°42.183 2.2 324 8.4 101390 82
2002-11-08 09:35:59 51°11.213 2°42.182 2.6 318 8.4 101390 82
2002-11-08 09:36:04 51°11.213 2°42.18 2.6 319 8.4 101390 82
2002-11-08 09:36:09 51°11.213 2°42.178 1.9 328 8.4 101390 82
2002-11-08 09:36:12 51°11.214 2°42.177 5.8 308 8.4 101390 82
2002-11-08 09:36:19 51°11.214 2°42.175 4.3 315 8.4 101390 82
2002-11-08 09:36:24 51°11.214 2°42.173 3.6 317 8.4 101380 82
2002-11-08 09:36:28 51°11.214 2°42.172 2.6 322 8.4 101380 82
2002-11-08 09:36:34 51°11.214 2°42.17 3.9 323 8.4 101380 82
2002-11-08 09:36:39 51°11.214 2°42.168 3.4 315 8.4 101380 82
2002-11-08 09:36:44 51°11.214 2°42.167 4 315 8.4 101390 82
2002-11-08 09:36:48 51°11.214 2°42.165 2.6 322 8.4 101390 82
2002-11-08 09:36:53 51°11.214 2°42.164 2 317 8.4 101390 82
2002-11-08 09:36:59 51°11.214 2°42.162 1.6 328 8.4 101390 82
2002-11-08 09:37:04 51°11.214 2°42.161 1.5 343 8.3 101390 81
2002-11-08 09:37:09 51°11.214 2°42.159 4.3 304 8.3 101390 81
2002-11-08 09:37:14 51°11.214 2°42.158 2.8 333 8.3 101390 82
2002-11-08 09:37:19 51°11.214 2°42.157 2.7 316 8.3 101390 82
2002-11-08 09:37:24 51°11.214 2°42.155 2.6 326 8.4 101380 82
2002-11-08 09:37:29 51°11.214 2°42.153 1.9 324 8.4 101380 82
2002-11-08 09:37:33 51°11.214 2°42.152 3.7 316 8.4 101390 82
2002-11-08 09:37:39 51°11.214 2°42.151 1.8 317 8.4 101390 82
2002-11-08 09:37:44 51°11.214 2°42.15 2.6 324 8.4 101390 82
2002-11-08 09:37:48 51°11.214 2°42.148 6.1 294 8.4 101390 82
2002-11-08 09:37:54 51°11.214 2°42.147 2.8 324 8.4 101390 82
2002-11-08 09:37:59 51°11.213 2°42.145 2.1 324 8.4 101390 82
2002-11-08 09:38:03 51°11.213 2°42.144 2.2 323 8.4 101400 82
2002-11-08 09:38:08 51°11.213 2°42.143 3.7 335 8.4 101400 82
2002-11-08 09:38:12 51°11.213 2°42.142 2.9 320 8.4 101390 82
2002-11-08 09:38:19 51°11.213 2°42.14 2.5 317 8.4 101390 82
2002-11-08 09:38:23 51°11.213 2°42.139 2.6 324 8.4 101390 82
2002-11-08 09:38:28 51°11.213 2°42.138 3.1 318 8.4 101390 82
2002-11-08 09:38:34 51°11.213 2°42.137 2.6 322 8.3 101400 81
2002-11-08 09:38:38 51°11.213 2°42.136 2.4 342 8.3 101400 81
2002-11-08 09:38:44 51°11.213 2°42.135 2.1 340 8.3 101390 81
2002-11-08 09:38:48 51°11.213 2°42.134 2.7 318 8.3 101390 81
2002-11-08 09:38:54 51°11.213 2°42.133 2.1 340 8.3 101400 81
2002-11-08 09:38:59 51°11.213 2°42.132 2.6 328 8.3 101400 81
2002-11-08 09:39:03 51°11.213 2°42.131 2.7 322 8.3 101390 81
2002-11-08 09:39:08 51°11.213 2°42.13 2.6 340 8.3 101390 81
2002-11-08 09:39:12 51°11.213 2°42.129 4.2 333 8.3 101380 81
2002-11-08 09:39:19 51°11.213 2°42.128 3.5 307 8.3 101380 81
2002-11-08 09:39:24 51°11.213 2°42.127 2.9 317 8.3 101390 81
2002-11-08 09:39:28 51°11.213 2°42.126 1.3 321 8.3 101390 81
2002-11-08 09:39:32 51°11.213 2°42.125 1.9 317 8.3 101400 81
2002-11-08 09:39:39 51°11.213 2°42.123 1.5 327 8.3 101400 81
2002-11-08 09:39:44 51°11.213 2°42.123 1.6 331 8.3 101390 81
2002-11-08 09:39:48 51°11.213 2°42.122 1.9 315 8.3 101390 81
2002-11-08 09:39:54 51°11.213 2°42.121 2.7 325 8.3 101390 81
2002-11-08 09:39:59 51°11.213 2°42.12 1.2 331 8.3 101390 81
2002-11-08 09:40:04 51°11.213 2°42.12 3 346 8.3 101390 81
2002-11-08 09:40:08 51°11.213 2°42.119 1.2 328 8.3 101390 81
2002-11-08 09:40:12 51°11.213 2°42.118 2.4 323 8.3 101380 81
2002-11-08 09:40:19 51°11.213 2°42.117 1.7 318 8.3 101380 81
2002-11-08 09:40:24 51°11.213 2°42.116 3.4 344 8.3 101390 81
2002-11-08 09:40:28 51°11.213 2°42.116 2.8 350 8.3 101390 81
2002-11-08 09:40:32 51°11.213 2°42.115 3.2 329 8.3 101390 81
2002-11-08 09:40:39 51°11.212 2°42.113 1.1 324 8.3 101390 81
2002-11-08 09:40:44 51°11.212 2°42.112 2 338 8.3 101380 81
2002-11-08 09:40:48 51°11.212 2°42.111 3.8 356 8.3 101380 81
2002-11-08 09:40:52 51°11.212 2°42.11 4.2 347 8.3 101390 81
2002-11-08 09:40:59 51°11.211 2°42.109 4.8 353 8.3 101390 81
2002-11-08 09:41:03 51°11.211 2°42.108 3 351 8.4 101390 81
2002-11-08 09:41:08 51°11.211 2°42.107 6.4 356 8.4 101390 81
2002-11-08 09:41:12 51°11.211 2°42.106 3.3 338 8.4 101390 82
2002-11-08 09:41:19 51°11.211 2°42.105 7.4 6 8.4 101390 82
2002-11-08 09:41:24 51°11.211 2°42.104 4.4 345 8.4 101390 82
2002-11-08 09:41:28 51°11.211 2°42.103 2 353 8.4 101390 82
2002-11-08 09:41:34 51°11.211 2°42.102 4.7 336 8.4 101390 82
2002-11-08 09:41:39 51°11.211 2°42.1 2.2 328 8.4 101390 82
2002-11-08 09:41:44 51°11.211 2°42.099 4.4 357 8.4 101400 81
2002-11-08 09:41:48 51°11.211 2°42.099 3.1 342 8.4 101400 81
2002-11-08 09:41:53 51°11.211 2°42.098 3.9 359 8.4 101390 81
2002-11-08 09:41:59 51°11.211 2°42.097 8.1 356 8.4 101390 81
2002-11-08 09:42:03 51°11.211 2°42.096 6.7 353 8.5 101390 82
2002-11-08 09:42:08 51°11.211 2°42.094 7.1 357 8.5 101390 82
2002-11-08 09:42:12 51°11.211 2°42.093 6.8 357 8.4 101390 81
2002-11-08 09:42:19 51°11.211 2°42.092 6.2 340 8.4 101390 81
2002-11-08 09:42:24 51°11.211 2°42.091 7.9 333 8.4 101390 81
2002-11-08 09:42:28 51°11.211 2°42.09 6.9 337 8.4 101390 81
2002-11-08 09:42:34 51°11.211 2°42.089 5.4 350 8.4 101390 81
2002-11-08 09:42:39 51°11.211 2°42.088 5 359 8.4 101390 81
2002-11-08 09:42:44 51°11.211 2°42.086 6.1 355 8.4 101390 81
2002-11-08 09:42:48 51°11.211 2°42.085 5.3 353 8.4 101390 81
2002-11-08 09:42:53 51°11.211 2°42.084 6.3 359 8.3 101390 80
2002-11-08 09:42:59 51°11.211 2°42.083 5.6 346 8.3 101390 80
2002-11-08 09:43:03 51°11.211 2°42.082 6.6 352 8.4 101390 81
2002-11-08 09:43:08 51°11.211 2°42.081 6.8 357 8.4 101390 81
2002-11-08 09:43:12 51°11.211 2°42.08 7 353 8.3 101390 80
2002-11-08 09:43:19 51°11.211 2°42.079 5.1 340 8.3 101390 80
2002-11-08 09:43:24 51°11.211 2°42.078 4.4 354 8.3 101390 80
2002-11-08 09:43:28 51°11.211 2°42.077 3 347 8.3 101390 80
2002-11-08 09:43:34 51°11.211 2°42.075 4 344 8.3 101390 80
2002-11-08 09:43:39 51°11.211 2°42.074 2.7 345 8.3 101390 80
2002-11-08 09:43:44 51°11.212 2°42.073 2.2 347 8.3 101390 80
2002-11-08 09:43:48 51°11.212 2°42.072 2.7 346 8.3 101390 80
2002-11-08 09:43:53 51°11.212 2°42.07 2 331 8.2 101390 80
2002-11-08 09:43:59 51°11.212 2°42.069 1.1 337 8.2 101390 80
2002-11-08 09:44:03 51°11.212 2°42.068 3.7 4 8.2 101390 80
2002-11-08 09:44:08 51°11.212 2°42.067 4.7 350 8.2 101390 80
2002-11-08 09:44:14 51°11.212 2°42.065 8.3 356 8.3 101380 81
2002-11-08 09:44:19 51°11.212 2°42.064 7.2 340 8.3 101380 81
2002-11-08 09:44:24 51°11.212 2°42.062 6.4 343 8.3 101380 81
2002-11-08 09:44:28 51°11.213 2°42.061 6.6 349 8.3 101380 81
2002-11-08 09:44:32 51°11.213 2°42.06 4.8 347 8.4 101380 82
2002-11-08 09:44:39 51°11.213 2°42.059 4 346 8.4 101380 82
2002-11-08 09:44:44 51°11.213 2°42.057 2.8 355 8.4 101380 81
2002-11-08 09:44:48 51°11.213 2°42.057 3.2 356 8.4 101380 81
2002-11-08 09:44:54 51°11.213 2°42.055 2.8 341 8.3 101390 81
2002-11-08 09:44:59 51°11.213 2°42.053 2.8 353 8.3 101390 81
2002-11-08 09:45:03 51°11.214 2°42.052 3.2 351 8.3 101390 80
2002-11-08 09:45:09 51°11.214 2°42.05 3.6 348 8.3 101390 80
2002-11-08 09:45:14 51°11.214 2°42.049 2.3 349 8.3 101390 81
2002-11-08 09:45:19 51°11.214 2°42.047 3.1 358 8.3 101390 81
2002-11-08 09:45:24 51°11.214 2°42.046 3.4 348 8.3 101380 81
2002-11-08 09:45:28 51°11.214 2°42.045 2.5 348 8.3 101380 81
2002-11-08 09:45:34 51°11.214 2°42.043 3.3 356 8.3 101400 80
2002-11-08 09:45:39 51°11.215 2°42.041 1.9 341 8.3 101400 80
2002-11-08 09:45:43 51°11.215 2°42.04 2.8 340 8.2 101390 80
2002-11-08 09:45:48 51°11.215 2°42.038 2.4 350 8.2 101390 80
2002-11-08 09:45:53 51°11.215 2°42.037 2.2 324 8.2 101390 80
2002-11-08 09:45:59 51°11.215 2°42.035 2.3 355 8.2 101390 80
2002-11-08 09:46:03 51°11.215 2°42.033 2.1 321 8.2 101380 80
2002-11-08 09:46:08 51°11.215 2°42.032 2.5 327 8.2 101380 80
2002-11-08 09:46:14 51°11.216 2°42.03 2.2 319 8.2 101390 80
2002-11-08 09:46:19 51°11.216 2°42.028 1.7 315 8.2 101390 80
2002-11-08 09:46:24 51°11.216 2°42.027 1.7 334 8.2 101390 80
2002-11-08 09:46:28 51°11.216 2°42.026 1.6 329 8.2 101390 80
2002-11-08 09:46:34 51°11.216 2°42.024 0.9 310 8.2 101390 80
2002-11-08 09:46:39 51°11.216 2°42.022 1.3 334 8.2 101390 80
2002-11-08 09:46:44 51°11.216 2°42.02 1.5 335 8.2 101380 80
2002-11-08 09:46:48 51°11.216 2°42.019 1.7 324 8.2 101380 80
2002-11-08 09:46:54 51°11.216 2°42.017 3 330 8.3 101380 81
2002-11-08 09:46:59 51°11.216 2°42.016 2.2 319 8.3 101380 81
2002-11-08 09:47:04 51°11.216 2°42.014 1.7 332 8.3 101390 81
2002-11-08 09:47:08 51°11.216 2°42.013 0.9 321 8.3 101390 81
2002-11-08 09:47:12 51°11.216 2°42.012 3.2 306 8.2 101380 81
2002-11-08 09:47:19 51°11.216 2°42.01 3.2 328 8.2 101380 81
2002-11-08 09:47:24 51°11.216 2°42.008 2.6 332 8.2 101390 80
2002-11-08 09:47:29 51°11.216 2°42.007 0.8 327 8.2 101390 80
2002-11-08 09:47:34 51°11.216 2°42.005 2 303 8.2 101380 80
2002-11-08 09:47:39 51°11.216 2°42.004 1.9 347 8.2 101380 80
2002-11-08 09:47:44 51°11.216 2°42.002 2.5 316 8.2 101380 80
2002-11-08 09:47:48 51°11.216 2°42.001 2.2 327 8.2 101380 80
2002-11-08 09:47:54 51°11.216 2°41.999 3 319 8.2 101380 81
2002-11-08 09:47:59 51°11.217 2°41.998 2.9 344 8.2 101380 81
2002-11-08 09:48:04 51°11.217 2°41.996 1.4 336 8.3 101380 81
2002-11-08 09:48:08 51°11.217 2°41.995 1.7 344 8.3 101380 81
2002-11-08 09:48:14 51°11.217 2°41.993 3.3 316 8.3 101390 81
2002-11-08 09:48:19 51°11.217 2°41.992 2.9 293 8.3 101390 81
2002-11-08 09:48:23 51°11.217 2°41.991 1.6 317 8.3 101390 80
2002-11-08 09:48:28 51°11.217 2°41.99 1.9 317 8.3 101390 80
2002-11-08 09:48:32 51°11.217 2°41.989 2.1 341 8.2 101380 81
2002-11-08 09:48:39 51°11.217 2°41.987 1.3 339 8.2 101380 81
2002-11-08 09:48:44 51°11.217 2°41.985 1.5 305 8.3 101380 80
2002-11-08 09:48:48 51°11.217 2°41.984 2.3 335 8.3 101380 80
2002-11-08 09:48:52 51°11.217 2°41.983 2 338 8.3 101380 81
2002-11-08 09:48:59 51°11.217 2°41.981 1.9 351 8.3 101380 81
2002-11-08 09:49:04 51°11.217 2°41.98 2.4 337 8.3 101380 81
2002-11-08 09:49:08 51°11.217 2°41.979 1.8 353 8.3 101380 81
2002-11-08 09:49:14 51°11.217 2°41.977 1.7 324 8.3 101390 81
2002-11-08 09:49:19 51°11.217 2°41.976 2.2 318 8.3 101390 81
2002-11-08 09:49:24 51°11.217 2°41.975 1.5 320 8.2 101380 80
2002-11-08 09:49:28 51°11.218 2°41.974 1.5 336 8.2 101380 80
2002-11-08 09:49:34 51°11.218 2°41.972 1.6 325 8.2 101380 80
2002-11-08 09:49:39 51°11.218 2°41.971 3.2 7 8.2 101380 80
2002-11-08 09:49:43 51°11.218 2°41.97 2.8 339 8.2 101390 80
2002-11-08 09:49:48 51°11.218 2°41.968 2.8 319 8.2 101390 80
2002-11-08 09:49:54 51°11.218 2°41.966 2.1 336 8.2 101380 80
2002-11-08 09:49:59 51°11.218 2°41.965 2.4 331 8.2 101380 80
2002-11-08 09:50:04 51°11.218 2°41.964 1.7 315 8.2 101380 80
2002-11-08 09:50:08 51°11.218 2°41.963 1.6 3 8.2 101380 80
2002-11-08 09:50:14 51°11.218 2°41.961 2.6 324 8.2 101380 80
2002-11-08 09:50:19 51°11.218 2°41.96 1.6 330 8.2 101380 80
2002-11-08 09:50:23 51°11.218 2°41.959 2.8 344 8.2 101380 80
2002-11-08 09:50:28 51°11.219 2°41.957 1.7 305 8.2 101380 80
2002-11-08 09:50:32 51°11.218 2°41.956 1.9 334 8.2 101380 80
2002-11-08 09:50:39 51°11.218 2°41.954 2.7 331 8.2 101380 80
2002-11-08 09:50:43 51°11.219 2°41.953 2.6 307 8.2 101380 81
2002-11-08 09:50:48 51°11.219 2°41.952 2.5 316 8.2 101380 81
2002-11-08 09:50:54 51°11.219 2°41.95 2.9 322 8.2 101380 80
2002-11-08 09:50:59 51°11.219 2°41.949 2.9 323 8.2 101380 80
2002-11-08 09:51:04 51°11.219 2°41.947 2.3 317 8.2 101380 80
2002-11-08 09:51:08 51°11.22 2°41.946 3.7 316 8.2 101380 80
2002-11-08 09:51:14 51°11.219 2°41.944 1.6 318 8.1 101380 80
2002-11-08 09:51:19 51°11.22 2°41.943 2.5 310 8.1 101380 80
2002-11-08 09:51:24 51°11.22 2°41.941 1.6 330 8.2 101380 80
2002-11-08 09:51:28 51°11.22 2°41.94 1.8 295 8.2 101380 80
2002-11-08 09:51:34 51°11.22 2°41.939 3.9 311 8.2 101380 80
2002-11-08 09:51:39 51°11.22 2°41.937 1.9 331 8.2 101380 80
2002-11-08 09:51:43 51°11.221 2°41.936 1.6 328 8.1 101380 80
2002-11-08 09:51:48 51°11.221 2°41.934 1.8 331 8.1 101380 80
2002-11-08 09:51:54 51°11.221 2°41.933 2.1 337 8.1 101380 80
2002-11-08 09:51:59 51°11.221 2°41.931 1.8 346 8.1 101380 80
2002-11-08 09:52:04 51°11.221 2°41.93 2.5 308 8.1 101380 80
2002-11-08 09:52:09 51°11.221 2°41.928 2.3 319 8.1 101380 80
2002-11-08 09:52:14 51°11.221 2°41.927 2.2 318 8.1 101380 80
2002-11-08 09:52:19 51°11.221 2°41.925 2.5 317 8.1 101380 80
2002-11-08 09:52:24 51°11.221 2°41.924 2.5 321 8.1 101390 80
2002-11-08 09:52:28 51°11.221 2°41.923 1.6 329 8.1 101390 80
2002-11-08 09:52:34 51°11.222 2°41.921 2.2 325 8.1 101380 80
2002-11-08 09:52:39 51°11.222 2°41.92 4.6 311 8.1 101380 80
2002-11-08 09:52:44 51°11.222 2°41.919 4.2 310 8.1 101370 80
2002-11-08 09:52:48 51°11.222 2°41.918 2.4 320 8.1 101370 80
2002-11-08 09:52:52 51°11.222 2°41.916 3.9 317 8.1 101380 80
2002-11-08 09:52:59 51°11.222 2°41.915 3.1 315 8.1 101380 80
2002-11-08 09:53:03 51°11.222 2°41.913 2.3 341 8.1 101380 80
2002-11-08 09:53:08 51°11.223 2°41.912 2.1 335 8.1 101380 80
2002-11-08 09:53:14 51°11.223 2°41.91 3 347 8.1 101370 80
2002-11-08 09:53:19 51°11.223 2°41.909 2.2 325 8.1 101370 80
2002-11-08 09:53:24 51°11.223 2°41.907 3.4 331 8.2 101380 81
2002-11-08 09:53:28 51°11.223 2°41.906 2.5 344 8.2 101380 81
2002-11-08 09:53:32 51°11.223 2°41.905 1.8 335 8.2 101380 81
2002-11-08 09:53:39 51°11.224 2°41.903 1.2 332 8.2 101380 81
2002-11-08 09:53:44 51°11.224 2°41.901 2.1 347 8.2 101370 81
2002-11-08 09:53:48 51°11.224 2°41.9 1.8 344 8.2 101370 81
2002-11-08 09:53:54 51°11.224 2°41.899 2.6 323 8.2 101370 81
2002-11-08 09:53:59 51°11.224 2°41.897 3.7 337 8.2 101370 81
2002-11-08 09:54:04 51°11.224 2°41.896 2.7 320 8.2 101360 81
2002-11-08 09:54:08 51°11.225 2°41.894 1.4 335 8.2 101360 81
2002-11-08 09:54:14 51°11.225 2°41.893 1.5 324 8.2 101370 81
2002-11-08 09:54:19 51°11.225 2°41.891 1.9 315 8.2 101370 81
2002-11-08 09:54:23 51°11.225 2°41.89 3.4 329 8.2 101380 81
2002-11-08 09:54:28 51°11.225 2°41.888 1.9 332 8.2 101380 81
2002-11-08 09:54:32 51°11.226 2°41.887 2.7 326 8.2 101380 80
2002-11-08 09:54:39 51°11.226 2°41.885 3 319 8.2 101380 80
2002-11-08 09:54:43 51°11.226 2°41.884 1.8 318 8.2 101380 80
2002-11-08 09:54:49 51°11.226 2°41.882 2.5 314 8.2 101380 80
2002-11-08 09:54:54 51°11.226 2°41.88 2 314 8.1 101380 80
2002-11-08 09:54:59 51°11.227 2°41.879 1.8 314 8.1 101380 80
2002-11-08 09:55:03 51°11.227 2°41.878 1.9 316 8.1 101380 80
2002-11-08 09:55:08 51°11.227 2°41.876 1.7 327 8.1 101380 80
2002-11-08 09:55:12 51°11.227 2°41.875 1.9 272 8.1 101370 80
2002-11-08 09:55:19 51°11.228 2°41.873 2.1 8 8.1 101370 80
2002-11-08 09:55:24 51°11.228 2°41.872 3.1 320 8.1 101370 80
2002-11-08 09:55:28 51°11.228 2°41.871 2.9 318 8.1 101370 80
2002-11-08 09:55:34 51°11.228 2°41.869 2 325 8.1 101370 80
2002-11-08 09:55:39 51°11.228 2°41.867 2.1 320 8.1 101370 80
2002-11-08 09:55:43 51°11.228 2°41.866 3.5 333 8.1 101370 80
2002-11-08 09:55:48 51°11.228 2°41.865 1 333 8.1 101370 80
2002-11-08 09:55:52 51°11.229 2°41.864 1.2 326 8.1 101370 80
2002-11-08 09:55:59 51°11.229 2°41.862 2.6 318 8.1 101370 80
2002-11-08 09:56:03 51°11.229 2°41.861 4 297 8 101370 80
2002-11-08 09:56:09 51°11.229 2°41.859 2.5 308 8 101370 80
2002-11-08 09:56:13 51°11.229 2°41.858 4.3 325 8.1 101360 80
2002-11-08 09:56:19 51°11.229 2°41.856 2.2 328 8.1 101360 80
2002-11-08 09:56:24 51°11.229 2°41.855 2.4 316 8.1 101370 80
2002-11-08 09:56:28 51°11.229 2°41.854 3.7 318 8.1 101370 80
2002-11-08 09:56:34 51°11.229 2°41.852 2.4 319 8.1 101370 80
2002-11-08 09:56:39 51°11.229 2°41.851 2.6 318 8.1 101370 80
2002-11-08 09:56:44 51°11.229 2°41.85 3.8 333 8 101360 80
2002-11-08 09:56:48 51°11.229 2°41.848 2.4 351 8 101360 80
2002-11-08 09:56:54 51°11.229 2°41.847 2.2 330 8 101360 80
2002-11-08 09:56:59 51°11.229 2°41.846 2.2 307 8 101360 80
2002-11-08 09:57:04 51°11.229 2°41.845 1.4 298 8.1 101380 81
2002-11-08 09:57:08 51°11.229 2°41.844 2.1 321 8.1 101380 81
2002-11-08 09:57:14 51°11.229 2°41.842 3.4 323 8.1 101360 81
2002-11-08 09:57:19 51°11.229 2°41.841 3.9 319 8.1 101360 81
2002-11-08 09:57:24 51°11.229 2°41.84 2.8 317 8.1 101370 81
2002-11-08 09:57:28 51°11.229 2°41.839 4.2 305 8.1 101370 81
2002-11-08 09:57:32 51°11.229 2°41.838 3.2 308 8.2 101360 81
2002-11-08 09:57:39 51°11.229 2°41.837 1.3 318 8.2 101360 81
2002-11-08 09:57:44 51°11.229 2°41.835 2.8 316 8.2 101350 82
2002-11-08 09:57:48 51°11.229 2°41.835 2.9 332 8.2 101350 82
2002-11-08 09:57:54 51°11.229 2°41.833 2 321 8.2 101360 82
2002-11-08 09:57:59 51°11.229 2°41.832 2.8 316 8.2 101360 82
2002-11-08 09:58:04 51°11.229 2°41.831 2.2 316 8.2 101360 82
2002-11-08 09:58:08 51°11.229 2°41.83 1.9 323 8.2 101360 82
2002-11-08 09:58:14 51°11.228 2°41.829 5.3 344 8.2 101360 81
2002-11-08 09:58:19 51°11.229 2°41.828 1.9 322 8.2 101360 81
2002-11-08 09:58:23 51°11.229 2°41.827 1.3 339 8.2 101370 81
2002-11-08 09:58:28 51°11.228 2°41.825 2.6 325 8.2 101370 81
2002-11-08 09:58:32 51°11.229 2°41.825 2.6 330 8.2 101370 81
2002-11-08 09:58:39 51°11.229 2°41.823 2.3 332 8.2 101370 81
2002-11-08 09:58:43 51°11.229 2°41.822 2.2 312 8.2 101360 81
2002-11-08 09:58:49 51°11.229 2°41.82 2.7 327 8.2 101360 81
2002-11-08 09:58:53 51°11.229 2°41.82 2.6 325 8.2 101370 81
2002-11-08 09:58:59 51°11.229 2°41.818 2.8 344 8.2 101370 81
2002-11-08 09:59:03 51°11.229 2°41.817 3.7 346 8.2 101360 81
2002-11-08 09:59:08 51°11.229 2°41.816 2 345 8.2 101360 81
2002-11-08 09:59:14 51°11.228 2°41.814 2 324 8.2 101360 81
2002-11-08 09:59:19 51°11.228 2°41.814 0.9 340 8.2 101360 81
2002-11-08 09:59:24 51°11.228 2°41.812 0.7 304 8.2 101360 81
2002-11-08 09:59:28 51°11.228 2°41.812 3.4 325 8.2 101360 81
2002-11-08 09:59:33 51°11.228 2°41.811 2.7 308 8.2 101360 81
2002-11-08 09:59:39 51°11.228 2°41.809 2.1 341 8.2 101360 81
2002-11-08 09:59:43 51°11.228 2°41.808 4.1 323 8.2 101360 81
2002-11-08 09:59:48 51°11.228 2°41.807 2.1 348 8.2 101360 81
2002-11-08 09:59:54 51°11.228 2°41.806 2.6 329 8.3 101360 82
2002-11-08 09:59:59 51°11.228 2°41.805 1.7 335 8.3 101360 82
2002-11-08 10:00:04 51°11.227 2°41.804 2.7 326 8.3 101350 82
2002-11-08 10:00:08 51°11.227 2°41.803 2.3 328 8.3 101350 82
2002-11-08 10:00:14 51°11.227 2°41.802 1.2 326 8.3 101360 81
2002-11-08 10:00:19 51°11.227 2°41.8 3.6 314 8.3 101360 81
2002-11-08 10:00:23 51°11.227 2°41.8 2.7 335 8.2 101370 81
2002-11-08 10:00:28 51°11.228 2°41.799 4.1 346 8.2 101370 81